OE6ACM-10 Weather Reports


time (UTC)temp
F
wind
direction
speed
knots
gust
knots
rain 1hr
in
rain 24hr
in
rain mn
in
humidity
%
barometer
mb
20260507200844 67 0.0 0.0 0.00 0.00 0.00 100 925.9
20260507200344 67 0.0 0.0 0.00 0.00 0.00 100 925.8
20260507195844 67 0.0 0.0 0.00 0.00 0.00 100 925.7
20260507195344 67 0.0 0.0 0.00 0.00 0.00 100 925.8
20260507194844 68 0.0 0.0 0.00 0.00 0.00 100 925.7
20260507194344 68 0.0 0.0 0.00 0.00 0.00 100 925.7
20260507193844 68 0.0 0.0 0.00 0.00 0.00 100 925.6
20260507193344 69 0.0 0.0 0.00 0.00 0.00 100 925.6
20260507192844 69 0.0 0.0 0.00 0.00 0.00 100 925.5
20260507192344 69 0.0 0.0 0.00 0.00 0.00 100 925.5
20260507191844 69 0.0 0.0 0.00 0.00 0.00 100 925.4
20260507191344 69 0.0 0.0 0.00 0.00 0.00 100 925.4
20260507190844 69 0.0 0.0 0.00 0.00 0.00 100 925.4
20260507190344 69 0.0 0.0 0.00 0.00 0.00 100 925.3
20260507185844 70 0.0 0.0 0.00 0.00 0.00 100 925.3
20260507185344 70 0.0 0.0 0.00 0.00 0.00 100 925.3
20260507184844 70 0.0 0.0 0.00 0.00 0.00 100 925.2
20260507184344 70 0.0 0.0 0.00 0.00 0.00 100 925.1
20260507183844 70 0.0 0.0 0.00 0.00 0.00 100 925.0
20260507183344 70 0.0 0.0 0.00 0.00 0.00 100 924.9
20260507182844 70 0.0 0.0 0.00 0.00 0.00 100 924.9
20260507182344 70 0.0 0.0 0.00 0.00 0.00 100 924.9
20260507181844 71 0.0 0.0 0.00 0.00 0.00 100 924.7
20260507181344 71 0.0 0.0 0.00 0.00 0.00 100 924.8
20260507180844 70 0.0 0.0 0.00 0.00 0.00 100 925.0
20260507180344 71 0.0 0.0 0.00 0.00 0.00 100 925.0
20260507175844 71 0.0 0.0 0.00 0.00 0.00 100 925.1
20260507175344 71 0.0 0.0 0.00 0.00 0.00 100 925.2
20260507174844 72 0.0 0.0 0.00 0.00 0.00 100 925.1
20260507174344 72 0.0 0.0 0.00 0.00 0.00 100 925.0
20260507173844 72 0.0 0.0 0.00 0.00 0.00 100 925.0
20260507173344 72 0.0 0.0 0.00 0.00 0.00 100 924.9
20260507172844 72 0.0 0.0 0.00 0.00 0.00 100 924.9
20260507172344 72 0.0 0.0 0.00 0.00 0.00 100 924.9
20260507171844 72 0.0 0.0 0.00 0.00 0.00 100 924.8
20260507171344 72 0.0 0.0 0.00 0.00 0.00 100 924.6
20260507170844 71 0.0 0.0 0.00 0.00 0.00 100 924.6
20260507170344 71 0.0 0.0 0.00 0.00 0.00 100 924.5
20260507165844 71 0.0 0.0 0.00 0.00 0.00 100 924.5
20260507165344 71 0.0 0.0 0.00 0.00 0.00 100 924.5
20260507164844 71 0.0 0.0 0.00 0.00 0.00 100 924.4
20260507164344 71 0.0 0.0 0.00 0.00 0.00 100 924.2
20260507163844 72 0.0 0.0 0.00 0.00 0.00 100 924.1
20260507163344 72 0.0 0.0 0.00 0.00 0.00 100 924.0
20260507162844 72 0.0 0.0 0.00 0.00 0.00 100 924.1
20260507162344 71 0.0 0.0 0.00 0.00 0.00 100 924.0
20260507161844 71 0.0 0.0 0.00 0.00 0.00 100 923.7
20260507161344 74 0.0 0.0 0.00 0.00 0.00 100 923.5
20260507160844 74 0.0 0.0 0.00 0.00 0.00 100 923.5
20260507160344 74 0.0 0.0 0.00 0.00 0.00 100 923.6
20260507155844 75 0.0 0.0 0.00 0.00 0.00 100 923.5
20260507155344 76 0.0 0.0 0.00 0.00 0.00 100 923.2
20260507154844 76 0.0 0.0 0.00 0.00 0.00 100 923.0
20260507154344 76 0.0 0.0 0.00 0.00 0.00 100 923.1
20260507153815 77 0.0 0.0 0.00 0.00 0.00 100 923.0
20260507153315 77 0.0 0.0 0.00 0.00 0.00 100 922.9
20260507152815 78 0.0 0.0 0.00 0.00 0.00 100 922.9
20260507152315 78 0.0 0.0 0.00 0.00 0.00 100 922.8
20260507151815 79 0.0 0.0 0.00 0.00 0.00 100 922.8
20260507151315 79 0.0 0.0 0.00 0.00 0.00 100 922.8
20260507150815 79 0.0 0.0 0.00 0.00 0.00 100 922.8
20260507150315 78 0.0 0.0 0.00 0.00 0.00 100 922.8
20260507145815 79 0.0 0.0 0.00 0.00 0.00 100 922.8
20260507145315 80 0.0 0.0 0.00 0.00 0.00 100 922.7
20260507144815 80 0.0 0.0 0.00 0.00 0.00 100 922.6
20260507144315 78 0.0 0.0 0.00 0.00 0.00 100 922.7
20260507143815 79 0.0 0.0 0.00 0.00 0.00 100 922.7
20260507143315 78 0.0 0.0 0.00 0.00 0.00 100 922.6
20260507142815 79 0.0 0.0 0.00 0.00 0.00 100 922.7
20260507142315 80 0.0 0.0 0.00 0.00 0.00 100 922.6
20260507141815 82 0.0 0.0 0.00 0.00 0.00 100 922.3
20260507141315 85 0.0 0.0 0.00 0.00 0.00 100 922.2
20260507140815 80 0.0 0.0 0.00 0.00 0.00 100 922.3
20260507140315 80 0.0 0.0 0.00 0.00 0.00 100 922.3
20260507135815 80 0.0 0.0 0.00 0.00 0.00 100 922.4
20260507135315 80 0.0 0.0 0.00 0.00 0.00 100 922.3
20260507134815 80 0.0 0.0 0.00 0.00 0.00 100 922.2
20260507134315 81 0.0 0.0 0.00 0.00 0.00 100 922.3
20260507133815 81 0.0 0.0 0.00 0.00 0.00 100 922.0
20260507133315 80 0.0 0.0 0.00 0.00 0.00 100 922.1
20260507132815 80 0.0 0.0 0.00 0.00 0.00 100 922.2
20260507132315 78 0.0 0.0 0.00 0.00 0.00 100 922.3
20260507131815 78 0.0 0.0 0.00 0.00 0.00 100 922.1
20260507131315 81 0.0 0.0 0.00 0.00 0.00 100 921.8
20260507130815 84 0.0 0.0 0.00 0.00 0.00 100 921.6
20260507130315 87 0.0 0.0 0.00 0.00 0.00 93 921.5
20260507125815 89 0.0 0.0 0.00 0.00 0.00 92 921.6
20260507125315 89 0.0 0.0 0.00 0.00 0.00 87 921.5
20260507124815 92 0.0 0.0 0.00 0.00 0.00 93 921.6
20260507124315 91 0.0 0.0 0.00 0.00 0.00 90 921.6
20260507123815 90 0.0 0.0 0.00 0.00 0.00 100 921.6
20260507123315 88 0.0 0.0 0.00 0.00 0.00 99 921.6
20260507122815 88 0.0 0.0 0.00 0.00 0.00 100 921.6
20260507122315 88 0.0 0.0 0.00 0.00 0.00 100 921.7
20260507121815 87 0.0 0.0 0.00 0.00 0.00 100 921.7
20260507121315 85 0.0 0.0 0.00 0.00 0.00 100 921.7
20260507120815 85 0.0 0.0 0.00 0.00 0.00 100 921.7
20260507120315 83 0.0 0.0 0.00 0.00 0.00 100 921.8
20260507115815 85 0.0 0.0 0.00 0.00 0.00 100 921.8
20260507115315 86 0.0 0.0 0.00 0.00 0.00 100 921.7
20260507114815 83 0.0 0.0 0.00 0.00 0.00 100 921.8
20260507114315 81 0.0 0.0 0.00 0.00 0.00 100 922.1
20260507113815 81 0.0 0.0 0.00 0.00 0.00 100 922.0
20260507113315 81 0.0 0.0 0.00 0.00 0.00 100 921.9
20260507112815 80 0.0 0.0 0.00 0.00 0.00 100 922.0
20260507112315 81 0.0 0.0 0.00 0.00 0.00 100 921.9
20260507111815 82 0.0 0.0 0.00 0.00 0.00 100 921.7
20260507111315 83 0.0 0.0 0.00 0.00 0.00 100 921.5
20260507110815 84 0.0 0.0 0.00 0.00 0.00 100 921.6
20260507110315 85 0.0 0.0 0.00 0.00 0.00 100 921.5
20260507105815 86 0.0 0.0 0.00 0.00 0.00 100 921.6
20260507105315 86 0.0 0.0 0.00 0.00 0.00 100 921.6
20260507104815 85 0.0 0.0 0.00 0.00 0.00 100 921.6
20260507104315 84 0.0 0.0 0.00 0.00 0.00 100 921.7
20260507103815 84 0.0 0.0 0.00 0.00 0.00 100 921.8
20260507103315 84 0.0 0.0 0.00 0.00 0.00 100 921.9
20260507102815 84 0.0 0.0 0.00 0.00 0.00 100 921.9
20260507102315 85 0.0 0.0 0.00 0.00 0.00 100 922.0
20260507101815 86 0.0 0.0 0.00 0.00 0.00 100 922.0
20260507101315 86 0.0 0.0 0.00 0.00 0.00 100 922.2
20260507100815 87 0.0 0.0 0.00 0.00 0.00 100 922.2
20260507100315 88 0.0 0.0 0.00 0.00 0.00 100 922.2
20260507095815 88 0.0 0.0 0.00 0.00 0.00 100 922.2
20260507095315 88 0.0 0.0 0.00 0.00 0.00 100 922.3
20260507094815 89 0.0 0.0 0.00 0.00 0.00 100 922.2
20260507094315 88 0.0 0.0 0.00 0.00 0.00 100 922.3
20260507093815 88 0.0 0.0 0.00 0.00 0.00 100 922.3
20260507093315 87 0.0 0.0 0.00 0.00 0.00 100 922.3
20260507092815 88 0.0 0.0 0.00 0.00 0.00 100 922.3
20260507092315 87 0.0 0.0 0.00 0.00 0.00 100 922.3
20260507091815 87 0.0 0.0 0.00 0.00 0.00 100 922.2
20260507091315 87 0.0 0.0 0.00 0.00 0.00 100 922.2
20260507090815 86 0.0 0.0 0.00 0.00 0.00 100 922.2
20260507090315 86 0.0 0.0 0.00 0.00 0.00 100 922.1
20260507085815 85 0.0 0.0 0.00 0.00 0.00 100 922.2
20260507085315 86 0.0 0.0 0.00 0.00 0.00 100 922.2
20260507084815 86 0.0 0.0 0.00 0.00 0.00 100 922.2
20260507084315 87 0.0 0.0 0.00 0.00 0.00 100 922.2
20260507083815 86 0.0 0.0 0.00 0.00 0.00 100 922.2
20260507083315 87 0.0 0.0 0.00 0.00 0.00 100 922.1
20260507082815 85 0.0 0.0 0.00 0.00 0.00 100 922.1
20260507082315 85 0.0 0.0 0.00 0.00 0.00 100 922.0
20260507081815 84 0.0 0.0 0.00 0.00 0.00 100 922.0
20260507081315 84 0.0 0.0 0.00 0.00 0.00 100 922.0
20260507080815 83 0.0 0.0 0.00 0.00 0.00 100 922.0
20260507080315 81 0.0 0.0 0.00 0.00 0.00 100 922.1
20260507075815 81 0.0 0.0 0.00 0.00 0.00 100 922.0
20260507075315 81 0.0 0.0 0.00 0.00 0.00 100 922.0
20260507074815 81 0.0 0.0 0.00 0.00 0.00 100 921.9
20260507074315 82 0.0 0.0 0.00 0.00 0.00 100 921.9
20260507073815 81 0.0 0.0 0.00 0.00 0.00 100 921.9
20260507073315 81 0.0 0.0 0.00 0.00 0.00 100 921.9
20260507072815 80 0.0 0.0 0.00 0.00 0.00 100 921.8
20260507072315 79 0.0 0.0 0.00 0.00 0.00 100 921.7
20260507071815 78 0.0 0.0 0.00 0.00 0.00 100 921.7
20260507071315 78 0.0 0.0 0.00 0.00 0.00 100 921.8
20260507070815 78 0.0 0.0 0.00 0.00 0.00 100 921.8
20260507070315 77 0.0 0.0 0.00 0.00 0.00 100 921.8
20260507065815 78 0.0 0.0 0.00 0.00 0.00 100 921.7
20260507065315 78 0.0 0.0 0.00 0.00 0.00 100 921.7
20260507064815 78 0.0 0.0 0.00 0.00 0.00 100 921.7
20260507064315 79 0.0 0.0 0.00 0.00 0.00 100 921.7
20260507063815 79 0.0 0.0 0.00 0.00 0.00 100 921.7
20260507063315 79 0.0 0.0 0.00 0.00 0.00 100 921.7
20260507062815 79 0.0 0.0 0.00 0.00 0.00 100 921.7
20260507062315 79 0.0 0.0 0.00 0.00 0.00 100 921.7
20260507061815 78 0.0 0.0 0.00 0.00 0.00 100 921.6
20260507061315 78 0.0 0.0 0.00 0.00 0.00 100 921.6
20260507060815 77 0.0 0.0 0.00 0.00 0.00 100 921.5
20260507060315 77 0.0 0.0 0.00 0.00 0.00 100 921.5
20260507055815 76 0.0 0.0 0.00 0.00 0.00 100 921.4
20260507055315 77 0.0 0.0 0.00 0.00 0.00 100 921.3
20260507054815 76 0.0 0.0 0.00 0.00 0.00 100 921.4
20260507054315 76 0.0 0.0 0.00 0.00 0.00 100 921.4
20260507053815 76 0.0 0.0 0.00 0.00 0.00 100 921.4
20260507053315 76 0.0 0.0 0.00 0.00 0.00 100 921.4
20260507052815 76 0.0 0.0 0.00 0.00 0.00 100 921.3
20260507052315 75 0.0 0.0 0.00 0.00 0.00 100 921.4
20260507051815 75 0.0 0.0 0.00 0.00 0.00 100 921.4
20260507051315 75 0.0 0.0 0.00 0.00 0.00 100 921.4
20260507050815 75 0.0 0.0 0.00 0.00 0.00 100 921.4
20260507050315 75 0.0 0.0 0.00 0.00 0.00 100 921.5
20260507045815 75 0.0 0.0 0.00 0.00 0.00 100 921.4
20260507045315 74 0.0 0.0 0.00 0.00 0.00 100 921.4
20260507044815 73 0.0 0.0 0.00 0.00 0.00 100 921.4
20260507044315 74 0.0 0.0 0.00 0.00 0.00 100 921.2
20260507043815 73 0.0 0.0 0.00 0.00 0.00 100 921.2
20260507043315 73 0.0 0.0 0.00 0.00 0.00 100 921.1
20260507042815 73 0.0 0.0 0.00 0.00 0.00 100 921.0
20260507042315 73 0.0 0.0 0.00 0.00 0.00 100 921.0
20260507041815 73 0.0 0.0 0.00 0.00 0.00 100 921.0
20260507041315 73 0.0 0.0 0.00 0.00 0.00 100 921.0
20260507040815 73 0.0 0.0 0.00 0.00 0.00 100 921.1
20260507040315 73 0.0 0.0 0.00 0.00 0.00 100 921.1
20260507035815 73 0.0 0.0 0.00 0.00 0.00 100 921.0
20260507035315 73 0.0 0.0 0.00 0.00 0.00 100 921.0
20260507034815 73 0.0 0.0 0.00 0.00 0.00 100 920.9
20260507034315 73 0.0 0.0 0.00 0.00 0.00 100 920.8
20260507033815 73 0.0 0.0 0.00 0.00 0.00 100 920.8
20260507033315 73 0.0 0.0 0.00 0.00 0.00 100 920.7
20260507032815 72 0.0 0.0 0.00 0.00 0.00 100 920.7
20260507032315 73 0.0 0.0 0.00 0.00 0.00 100 920.6
20260507031815 73 0.0 0.0 0.00 0.00 0.00 100 920.6
20260507031315 72 0.0 0.0 0.00 0.00 0.00 100 920.5
20260507030815 73 0.0 0.0 0.00 0.00 0.00 100 920.6
20260507030315 72 0.0 0.0 0.00 0.00 0.00 100 920.6
20260507025815 72 0.0 0.0 0.00 0.00 0.00 100 920.6
20260507025315 72 0.0 0.0 0.00 0.00 0.00 100 920.5
20260507024815 72 0.0 0.0 0.00 0.00 0.00 100 920.5
20260507024315 72 0.0 0.0 0.00 0.00 0.00 100 920.4
20260507023815 72 0.0 0.0 0.00 0.00 0.00 100 920.3
20260507023315 72 0.0 0.0 0.00 0.00 0.00 100 920.4
20260507022815 72 0.0 0.0 0.00 0.00 0.00 100 920.4
20260507022315 72 0.0 0.0 0.00 0.00 0.00 100 920.4
20260507021815 72 0.0 0.0 0.00 0.00 0.00 100 920.4
20260507021315 72 0.0 0.0 0.00 0.00 0.00 100 920.4
20260507020815 72 0.0 0.0 0.00 0.00 0.00 100 920.3
20260507020315 72 0.0 0.0 0.00 0.00 0.00 100 920.2
20260507015815 72 0.0 0.0 0.00 0.00 0.00 100 920.2
20260507015315 72 0.0 0.0 0.00 0.00 0.00 100 920.1
20260507014815 73 0.0 0.0 0.00 0.00 0.00 100 920.2
20260507014315 74 0.0 0.0 0.00 0.00 0.00 100 920.1
20260507013815 73 0.0 0.0 0.00 0.00 0.00 100 920.1
20260507013315 74 0.0 0.0 0.00 0.00 0.00 100 920.1
20260507012815 74 0.0 0.0 0.00 0.00 0.00 100 920.1
20260507012315 74 0.0 0.0 0.00 0.00 0.00 100 920.1
20260507011815 74 0.0 0.0 0.00 0.00 0.00 100 919.9
20260507011315 74 0.0 0.0 0.00 0.00 0.00 100 920.0
20260507010815 74 0.0 0.0 0.00 0.00 0.00 100 920.0
20260507010315 74 0.0 0.0 0.00 0.00 0.00 100 920.0
20260507005815 75 0.0 0.0 0.00 0.00 0.00 100 919.9
20260507005315 75 0.0 0.0 0.00 0.00 0.00 100 919.8
20260507004815 75 0.0 0.0 0.00 0.00 0.00 100 919.8
20260507004315 75 0.0 0.0 0.00 0.00 0.00 100 919.8
20260507003815 74 0.0 0.0 0.00 0.00 0.00 100 919.8
20260507003315 75 0.0 0.0 0.00 0.00 0.00 100 919.7
20260507002815 75 0.0 0.0 0.00 0.00 0.00 100 919.7
20260507002315 74 0.0 0.0 0.00 0.00 0.00 100 919.6
20260507001815 75 0.0 0.0 0.00 0.00 0.00 100 919.6
20260507001315 76 0.0 0.0 0.00 0.00 0.00 100 919.7
20260507000815 76 0.0 0.0 0.00 0.00 0.00 100 919.6
20260507000315 75 0.0 0.0 0.00 0.00 0.00 100 919.6
20260506235815 76 0.0 0.0 0.00 0.00 0.00 100 919.7
20260506235315 76 0.0 0.0 0.00 0.00 0.00 100 919.7
20260506234815 76 0.0 0.0 0.00 0.00 0.00 100 919.7
20260506234315 76 0.0 0.0 0.00 0.00 0.00 100 919.7
20260506233815 76 0.0 0.0 0.00 0.00 0.00 100 919.6
20260506233315 77 0.0 0.0 0.00 0.00 0.00 100 919.7
20260506232815 76 0.0 0.0 0.00 0.00 0.00 100 919.5
20260506232315 76 0.0 0.0 0.00 0.00 0.00 100 919.6
20260506231815 76 0.0 0.0 0.00 0.00 0.00 100 919.6
20260506231315 76 0.0 0.0 0.00 0.00 0.00 100 919.5
20260506230815 77 0.0 0.0 0.00 0.00 0.00 100 919.6
20260506230315 76 0.0 0.0 0.00 0.00 0.00 100 919.6
20260506225815 76 0.0 0.0 0.00 0.00 0.00 100 919.5
20260506225315 77 0.0 0.0 0.00 0.00 0.00 100 919.5
20260506224815 77 0.0 0.0 0.00 0.00 0.00 100 919.3
20260506224315 77 0.0 0.0 0.00 0.00 0.00 100 919.4
20260506223815 77 0.0 0.0 0.00 0.00 0.00 100 919.4
20260506223315 78 0.0 0.0 0.00 0.00 0.00 100 919.4
20260506222815 77 0.0 0.0 0.00 0.00 0.00 100 919.4
20260506222315 78 0.0 0.0 0.00 0.00 0.00 100 919.4
20260506221815 78 0.0 0.0 0.00 0.00 0.00 100 919.4
20260506221315 78 0.0 0.0 0.00 0.00 0.00 100 919.3
20260506220815 78 0.0 0.0 0.00 0.00 0.00 100 919.3
20260506220315 78 0.0 0.0 0.00 0.00 0.00 100 919.4
20260506215815 78 0.0 0.0 0.00 0.00 0.00 100 919.3
20260506215315 79 0.0 0.0 0.00 0.00 0.00 100 919.3
20260506214815 79 0.0 0.0 0.00 0.00 0.00 100 919.2
20260506214315 79 0.0 0.0 0.00 0.00 0.00 100 919.2
20260506213815 79 0.0 0.0 0.00 0.00 0.00 100 919.1
20260506213315 79 0.0 0.0 0.00 0.00 0.00 100 919.1
20260506212815 79 0.0 0.0 0.00 0.00 0.00 100 919.2
20260506212315 79 0.0 0.0 0.00 0.00 0.00 100 919.1
20260506211815 80 0.0 0.0 0.00 0.00 0.00 100 919.1
20260506211315 79 0.0 0.0 0.00 0.00 0.00 100 919.2
20260506210815 79 0.0 0.0 0.00 0.00 0.00 100 919.1
20260506210315 79 0.0 0.0 0.00 0.00 0.00 100 919.1
20260506205815 79 0.0 0.0 0.00 0.00 0.00 100 919.1
20260506205315 78 0.0 0.0 0.00 0.00 0.00 100 919.2
20260506204815 79 0.0 0.0 0.00 0.00 0.00 100 919.1
20260506204315 79 0.0 0.0 0.00 0.00 0.00 100 919.1
20260506203815 79 0.0 0.0 0.00 0.00 0.00 100 919.0
20260506203315 79 0.0 0.0 0.00 0.00 0.00 100 919.0
20260506202815 79 0.0 0.0 0.00 0.00 0.00 100 919.0
20260506202315 79 0.0 0.0 0.00 0.00 0.00 100 918.9
20260506201815 79 0.0 0.0 0.00 0.00 0.00 100 918.8
20260506201315 79 0.0 0.0 0.00 0.00 0.00 100 918.8